This demonstration page uses our WeatherBlox Daily Observations layout. Learn more.

Left ArrowRight Arrow

Hourly Observations for October 17, 2016

Temp ( °F °C ) Dew Point ( °F °C ) Humidity (%) Winds ( mph kmh ) Pressure ( in mb ) Visibility ( mi km ) Precip ( " mm )
12:53 am 00:53 Clear 36 2.2 32 0 86 86 WSW 10 17 29.47 998 10 16 0.00 0.00
1:53 am 01:53 Clear 35 1.7 31 -0.6 85 85 WNW 7 11 29.45 997 10 16 0.00 0.00
2:53 am 02:53 Clear 34 1.1 31 -0.6 89 89 undefined N/A 29.46 998 10 16 0.00 0.00
3:53 am 03:53 Clear 33 0.6 30 -1.1 89 89 WSW 8 13 29.46 998 10 16 0.00 0.00
4:53 am 04:53 Clear 33 0.6 30 -1.1 89 89 Calm 29.47 998 10 16 0.00 0.00
5:53 am 05:53 Clear 29 -1.7 28 -2.2 96 96 ESE 8 13 29.48 998 10 16 0.00 0.00
6:53 am 06:53 Clear 31 -0.6 30 -1.1 96 96 SE 5 7 29.48 998 10 16 0.00 0.00
7:53 am 07:53 Sunny 33 0.6 29 -1.7 85 85 Calm 29.50 999 10 16 0.00 0.00
8:53 am 08:53 Sunny 33 0.6 31 -0.6 92 92 WNW 6 9 29.52 1000 10 16 0.00 0.00
9:53 am 09:53 Sunny 36 2.2 32 0 86 86 SSW 6 9 29.54 1001 10 16 0.00 0.00
10:53 am 10:53 Cloudy 41 5 35 1.7 79 79 WSW 6 9 29.54 1001 10 16 0.00 0.00
11:53 am 11:53 Cloudy 44 6.7 36 2.2 73 73 WSW 9 15 29.58 1002 10 16 0.00 0.00
12:53 pm 12:53 Cloudy 50 10 38 3.3 63 63 WSW 7 11 29.57 1001 10 16 0.00 0.00
1:53 pm 13:53 Cloudy 53 11.7 39 3.9 59 59 SW 15 24 29.58 1002 10 16 0.00 0.00
2:53 pm 14:53 Mostly Cloudy 52 11.1 40 4.4 64 64 SW 18 30 29.60 1002 10 16 0.00 0.00
3:53 pm 15:53 Cloudy 52 11.1 42 5.6 69 69 SW 12 19 29.63 1003 10 16 0.00 0.00
4:53 pm 16:53 Cloudy 53 11.7 39 3.9 59 59 WNW 6 9 29.64 1004 10 16 0.00 0.03
5:53 pm 17:53 Cloudy 50 10 42 5.6 74 74 SW 6 9 29.67 1005 10 16 0.00 0.03
6:53 pm 18:53 Cloudy 50 10 36 2.2 59 59 W 13 20 29.69 1005 10 16 0.00 0.00
7:53 pm 19:53 Cloudy 47 8.3 37 2.8 69 69 Calm 29.71 1006 10 16 0.00 0.00
8:53 pm 20:53 Cloudy 46 7.8 37 2.8 71 71 WSW 5 7 29.72 1007 10 16 0.00 0.00
9:53 pm 21:53 Cloudy 46 7.8 37 2.8 71 71 WSW 3 6 29.73 1007 10 16 0.00 0.00
10:53 pm 22:53 Cloudy 46 7.8 37 2.8 71 71 WSW 14 22 29.75 1008 10 16 0.00 0.00
11:53 pm 23:53 Cloudy with Light Rain 44 6.7 38 3.3 79 79 WSW 7 11 29.77 1008 10 16 0.00 0.03

Powered by AerisWeather